Date,TemperatureHighF,TemperatureAvgF,TemperatureLowF,DewpointHighF,DewpointAvgF,DewpointLowF,HumidityHigh,HumidityAvg,HumidityLow,PressureMaxIn,PressureMinIn,WindSpeedMaxMPH,WindSpeedAvgMPH,GustSpeedMaxMPH,PrecipitationSumIn
2013-1-1,48,46,42,48,43,24,98,91,47,30.12,29.91,2,0,4,0.89
2013-1-2,46,38,35,46,37,34,98,98,96,30.12,29.90,2,0,3,0.04
2013-1-3,42,34,27,37,32,25,98,93,75,30.33,30.10,1,0,3,0.00
2013-1-4,48,32,22,34,24,21,95,77,39,30.40,30.30,2,0,5,0.00
2013-1-5,51,36,23,35,24,20,92,67,30,30.38,30.25,2,0,4,0.04
2013-1-6,49,38,34,41,35,30,100,88,63,30.26,30.09,1,0,4,0.02
2013-1-7,52,38,25,33,27,24,96,70,37,30.37,30.21,9,2,13,0.00
2013-1-8,54,46,37,48,39,27,94,76,63,30.37,30.28,9,3,15,0.00
2013-1-9,60,56,50,54,51,48,96,86,73,30.39,30.30,4,1,6,0.00
2013-1-10,63,58,52,55,52,49,93,82,67,30.38,30.16,16,5,25,0.02
2013-1-11,62,58,55,60,57,53,98,97,93,30.16,30.04,14,4,19,0.36
2013-1-12,68,62,60,62,59,56,98,89,74,30.09,29.98,8,2,13,0.03
2013-1-13,64,62,60,59,58,55,97,87,80,30.02,29.93,10,4,13,0.30
2013-1-14,60,55,46,60,54,45,99,97,92,30.09,29.94,5,1,7,1.24
2013-1-15,60,56,46,59,56,46,99,99,97,30.05,29.89,6,2,9,0.99
2013-1-16,60,56,51,59,55,51,99,98,95,29.94,29.83,6,1,6,0.17
2013-1-17,51,44,30,51,43,29,99,98,91,30.19,29.58,9,0,13,1.48
2013-1-18,53,36,26,35,29,24,97,78,42,30.50,30.19,3,0,5,0.00
2013-1-19,55,40,31,31,27,22,78,60,33,30.45,30.20,4,1,9,0.00
2013-1-20,61,42,29,40,31,25,88,66,36,30.20,30.07,3,0,7,0.00
2013-1-21,53,37,27,36,26,15,95,66,35,30.12,30.02,3,0,5,0.00
2013-1-22,41,28,20,15,10,6,64,48,30,30.30,30.10,2,1,9,0.00
2013-1-23,52,34,25,30,19,8,80,54,39,30.36,30.15,3,0,5,0.00
2013-1-24,46,38,27,37,22,7,83,55,28,30.33,30.10,5,1,6,0.00
2013-1-25,39,31,24,38,24,7,97,76,44,30.34,30.13,9,4,15,0.21
2013-1-26,54,38,30,38,32,25,97,81,43,30.31,30.15,2,0,5,0.00
2013-1-27,49,39,28,33,30,25,87,72,52,30.45,30.29,8,3,11,0.00
2013-1-28,59,48,39,52,43,29,95,83,66,30.41,30.22,6,2,8,0.00
2013-1-29,62,56,44,59,53,42,97,91,83,30.24,29.92,9,3,13,0.14
2013-1-30,62,55,38,61,54,36,98,95,88,29.91,29.46,15,4,20,4.04
2013-1-31,46,35,28,36,26,22,94,72,45,30.10,29.62,3,1,6,0.01
2013-2-1,38,30,20,30,17,8,89,60,31,30.36,30.04,3,1,11,0.00
2013-2-2,35,27,18,31,21,8,100,79,41,30.36,30.12,3,0,7,0.04
2013-2-3,48,35,29,40,30,25,97,84,54,30.13,29.97,2,0,4,0.36
2013-2-4,47,35,25,32,25,21,92,70,42,30.14,30.00,7,0,9,0.00
2013-2-5,62,44,36,45,36,24,93,75,47,30.02,29.92,2,0,6,0.00
2013-2-6,65,46,32,40,33,26,98,66,27,30.17,30.01,2,0,5,0.01
2013-2-7,51,46,40,44,37,27,94,73,51,30.13,29.90,11,3,17,0.09
2013-2-8,56,43,30,48,40,28,98,91,58,30.14,29.86,1,0,3,0.04
2013-2-9,61,41,26,33,26,22,100,63,24,30.29,30.10,5,1,10,0.01
2013-2-10,50,46,43,48,33,22,97,62,35,30.27,30.05,14,7,22,0.61
2013-2-11,53,49,41,53,47,37,98,93,78,30.08,29.98,12,2,15,0.28
2013-2-12,50,42,35,42,37,31,100,82,52,30.08,29.83,10,0,12,0.11
2013-2-13,48,41,32,43,38,30,95,89,80,29.92,29.67,10,3,20,0.04
2013-2-14,57,40,31,38,31,25,93,73,40,30.05,29.91,3,0,5,0.00
2013-2-15,62,43,31,41,34,28,100,74,35,30.09,29.94,3,0,4,0.09
2013-2-16,38,30,22,32,23,13,100,78,46,30.08,29.90,3,1,5,0.01
2013-2-17,42,28,18,18,13,9,70,54,33,30.28,30.08,3,1,7,0.00
2013-2-18,52,38,23,28,22,12,77,53,35,30.35,30.11,14,4,19,0.00
2013-2-19,56,41,33,46,30,16,97,67,39,30.13,29.92,14,3,18,0.26
2013-2-20,50,34,24,21,14,8,72,46,21,30.17,30.08,2,0,5,0.00
2013-2-21,63,41,25,39,22,11,93,52,15,30.18,29.98,9,2,14,0.54
2013-2-22,47,43,39,45,40,36,96,89,83,30.14,29.97,13,5,19,0.36
2013-2-23,55,48,43,52,47,42,100,95,88,30.00,29.78,3,0,4,0.42
2013-2-24,64,45,32,43,34,25,100,69,28,29.99,29.85,3,0,5,0.00
2013-2-25,52,42,32,40,30,25,94,65,46,30.00,29.80,12,5,17,0.01
2013-2-26,45,42,36,43,40,34,95,91,80,29.80,29.51,15,5,24,0.93
2013-2-27,57,41,34,40,34,31,95,79,44,29.83,29.69,3,0,10,0.03
2013-2-28,38,32,30,33,27,24,86,79,74,29.96,29.77,2,0,4,0.00
2013-3-1,36,32,29,30,28,24,92,84,74,29.98,29.90,1,0,5,0.00
2013-3-2,37,30,26,31,27,19,95,86,70,29.99,29.89,2,0,9,0.02
2013-3-3,39,29,22,24,19,16,88,69,47,30.06,29.96,2,1,7,0.00
2013-3-4,55,37,20,32,23,16,84,59,32,30.17,30.02,4,1,6,0.00
2013-3-5,53,46,31,50,41,27,97,83,50,30.06,29.59,7,2,10,0.42
2013-3-6,31,28,25,28,25,21,93,88,78,30.19,29.76,4,2,9,0.01
2013-3-7,56,36,24,39,29,23,95,77,44,30.28,30.17,2,0,5,0.00
2013-3-8,64,40,23,34,26,20,95,64,20,30.32,30.20,2,0,6,0.00
2013-3-9,60,49,36,32,27,21,60,44,31,30.26,30.16,5,2,9,0.00
2013-3-10,60,54,48,42,33,28,61,46,35,30.18,30.02,14,7,22,0.00
2013-3-11,55,52,49,52,48,41,97,88,61,30.02,29.73,15,8,26,1.19
2013-3-12,58,44,34,50,37,30,100,79,44,30.05,29.76,2,0,7,0.05
2013-3-13,50,38,28,31,26,19,85,64,38,30.21,30.03,4,1,12,0.00
2013-3-14,53,35,20,24,18,14,84,54,24,30.32,30.20,3,0,8,0.00
2013-3-15,72,51,32,43,36,25,88,59,32,30.25,29.93,3,0,11,0.00
2013-3-16,78,62,51,49,44,40,70,52,36,29.93,29.76,3,1,15,0.00
2013-3-17,71,60,52,52,46,42,78,60,41,29.89,29.80,4,0,6,0.00
2013-3-18,55,50,46,50,47,44,100,91,74,29.89,29.75,12,4,20,0.50
2013-3-19,62,48,34,47,35,20,98,67,31,30.05,29.80,3,0,7,0.00
2013-3-20,59,42,32,30,21,16,84,45,21,30.08,29.83,3,1,7,0.00
2013-3-21,45,32,21,28,15,10,81,53,29,29.96,29.82,4,1,7,0.00
2013-3-22,46,36,26,30,20,12,68,54,37,30.04,29.95,1,0,4,0.00
2013-3-23,55,46,38,50,42,30,97,86,62,30.02,29.74,10,1,15,0.20
2013-3-24,52,46,36,48,44,32,97,93,84,29.81,29.43,13,3,16,1.21
2013-3-25,36,30,27,32,25,22,92,82,74,30.00,29.57,3,1,5,0.01
2013-3-26,39,30,26,31,25,23,90,82,63,30.24,29.98,2,1,5,0.00
2013-3-27,53,37,24,28,24,22,92,65,34,30.31,30.22,2,0,7,0.01
2013-3-28,60,42,27,31,25,20,80,54,26,30.30,30.20,3,0,7,0.00
2013-3-29,58,42,30,36,29,22,77,60,35,30.31,30.19,2,0,6,0.00
2013-3-30,68,52,41,51,40,34,96,69,34,30.19,29.97,4,1,9,0.28
2013-3-31,62,54,51,55,52,49,97,92,70,29.97,29.80,4,0,7,0.37
2013-4-1,67,54,42,52,45,37,99,76,46,29.97,29.80,2,0,5,0.01
2013-4-2,63,47,35,36,29,22,81,53,22,30.12,29.96,2,0,9,0.00
2013-4-3,59,49,38,34,29,25,63,47,32,30.15,30.06,8,1,11,0.00
2013-4-4,50,41,36,40,34,27,96,79,41,30.12,29.91,17,5,25,0.40
2013-4-5,67,49,40,48,39,32,98,74,30,30.05,29.91,3,0,7,0.01
2013-4-6,66,52,35,42,35,32,89,56,32,30.16,30.05,7,2,11,0.00
2013-4-7,68,60,49,47,42,33,62,52,41,30.14,30.02,7,3,14,0.00
2013-4-8,71,64,55,53,50,45,79,61,47,30.07,29.99,8,2,12,0.00
2013-4-9,80,67,54,58,54,50,88,62,41,30.11,29.99,7,2,15,0.00
2013-4-10,81,72,61,59,55,53,80,58,41,30.04,29.83,7,2,10,0.00
2013-4-11,72,66,59,64,57,53,96,73,55,29.84,29.56,11,4,18,0.84
2013-4-12,70,59,47,59,50,38,98,75,38,29.85,29.55,12,1,12,0.74
2013-4-13,77,58,42,43,38,34,85,52,25,29.98,29.85,2,0,6,0.00
2013-4-14,65,54,45,50,41,33,89,64,36,29.99,29.86,14,5,18,0.04
2013-4-15,74,61,53,58,54,50,96,79,53,30.09,29.88,9,3,14,0.00
2013-4-16,78,66,58,61,58,55,94,77,54,30.18,30.07,7,2,11,0.00
2013-4-17,82,67,59,65,60,58,98,79,49,30.13,29.97,6,1,11,1.75
2013-4-18,71,65,58,61,59,57,98,81,65,29.97,29.83,10,5,14,0.00
2013-4-19,66,57,41,62,53,35,100,89,80,29.94,29.66,13,3,18,0.90
2013-4-20,65,47,33,40,33,27,88,61,33,30.23,29.94,3,0,9,0.00
2013-4-21,63,50,36,38,33,28,84,54,34,30.31,30.21,11,4,19,0.00
2013-4-22,67,55,43,42,38,37,79,56,36,30.28,30.10,9,4,13,0.00
2013-4-23,71,58,44,47,39,29,69,51,35,30.17,30.02,5,2,9,0.00
2013-4-24,68,59,49,58,52,47,95,79,63,30.07,29.97,6,1,12,0.10
2013-4-25,73,53,41,49,39,29,96,67,23,30.27,30.07,2,0,5,0.00
2013-4-26,70,54,35,49,36,27,86,53,29,30.35,30.23,7,2,12,0.04
2013-4-27,56,52,48,50,48,45,97,87,69,30.31,30.11,11,3,15,0.52
2013-4-28,54,52,49,54,51,48,100,96,85,30.14,29.95,9,2,13,1.60
2013-4-29,77,60,51,59,53,48,99,79,42,29.99,29.86,2,0,5,0.02
2013-4-30,75,61,48,57,52,46,96,74,47,30.05,29.90,6,1,10,0.00
2013-5-1,69,62,56,56,53,51,87,74,58,30.12,30.03,8,4,14,0.00
2013-5-2,65,59,56,56,53,50,88,80,69,30.13,30.06,10,6,18,0.00
2013-5-3,60,56,54,54,51,48,91,84,65,30.08,29.92,15,8,25,0.00
2013-5-4,56,52,48,50,48,42,94,87,74,29.92,29.79,15,8,25,1.33
2013-5-5,54,51,46,52,49,45,97,93,88,29.79,29.67,14,4,22,1.11
2013-5-6,53,46,40,47,44,40,98,92,76,29.88,29.72,4,1,9,0.12
2013-5-7,70,55,45,55,49,44,98,82,50,29.91,29.83,1,0,4,0.01
2013-5-8,74,59,49,60,53,48,98,84,55,30.01,29.88,1,0,2,0.00
2013-5-9,83,65,49,63,54,48,98,74,39,30.06,29.96,1,0,6,0.01
2013-5-10,73,64,54,62,56,52,96,78,54,30.04,29.88,4,0,10,0.06
2013-5-11,75,61,56,64,58,56,98,92,60,29.91,29.80,1,0,4,0.32
2013-5-12,67,55,45,55,45,33,99,73,37,30.04,29.86,1,0,4,0.00
2013-5-13,68,52,38,42,36,32,85,57,32,30.16,30.03,2,0,7,0.00
2013-5-14,81,59,38,55,45,34,87,61,37,30.21,30.05,2,0,6,0.00
2013-5-15,90,71,58,60,55,52,83,61,29,30.09,29.92,1,0,3,0.00
2013-5-16,84,68,56,63,58,53,92,72,44,29.99,29.90,1,0,5,0.00
2013-5-17,76,66,57,63,58,53,93,75,52,30.02,29.95,5,1,10,0.00
2013-5-18,67,63,60,65,61,58,98,94,83,30.01,29.95,4,1,12,0.31
2013-5-19,69,63,58,67,62,57,99,97,89,30.02,29.90,3,0,3,0.91
2013-5-20,86,68,56,71,64,55,99,86,52,30.05,29.93,5,0,6,0.01
2013-5-21,87,72,63,71,66,61,99,82,45,29.97,29.82,4,0,11,0.00
2013-5-22,82,69,61,70,64,60,98,85,57,29.92,29.76,3,0,7,0.22
2013-5-23,82,68,61,67,61,54,99,80,50,29.89,29.82,1,0,4,0.00
2013-5-24,74,62,51,55,48,36,92,65,30,30.16,29.88,3,0,4,0.00
2013-5-25,82,59,40,51,41,28,93,57,23,30.27,30.14,1,0,4,0.00
2013-5-26,81,62,47,57,48,38,86,60,37,30.22,30.10,1,0,4,0.00
2013-5-27,80,67,54,60,54,47,84,66,44,30.16,30.05,5,1,10,0.00
2013-5-28,81,71,63,65,59,56,83,69,45,30.12,30.04,5,1,10,0.00
2013-5-29,80,70,60,65,60,57,90,74,49,30.13,30.04,6,2,11,0.00
2013-5-30,78,70,64,64,62,59,90,76,55,30.17,30.05,6,2,9,0.00
2013-5-31,79,70,65,66,63,61,88,77,61,30.13,30.01,5,2,11,0.00
2013-6-1,78,70,65,67,64,61,97,82,69,30.03,29.92,6,2,10,0.32
2013-6-2,74,68,65,71,67,64,99,96,86,29.92,29.80,2,0,6,1.09
2013-6-3,81,69,62,72,65,60,99,88,57,29.90,29.79,0,0,1,0.01
2013-6-4,84,69,55,68,62,54,99,80,48,29.95,29.88,1,0,3,0.01
2013-6-5,80,70,61,70,65,60,98,85,67,29.95,29.82,5,1,10,1.99
2013-6-6,77,68,61,70,65,60,98,91,71,29.84,29.69,3,0,5,0.01
2013-6-7,86,69,63,72,66,62,98,89,56,29.77,29.60,1,0,3,0.46
2013-6-8,81,69,60,70,64,60,99,85,59,30.02,29.76,1,0,2,0.00
2013-6-9,79,70,63,71,66,61,98,89,69,30.02,29.92,4,1,8,0.30
2013-6-10,79,69,63,70,65,62,98,89,61,29.94,29.85,2,0,6,0.48
2013-6-11,87,74,66,76,69,64,99,87,60,29.95,29.88,0,0,3,0.08
2013-6-12,89,76,65,80,70,64,99,85,58,29.97,29.88,0,0,1,0.00
2013-6-13,89,75,66,76,70,65,98,86,56,29.89,29.63,1,0,3,0.33
2013-6-14,84,70,57,66,60,56,99,76,43,29.94,29.74,0,0,3,0.01
2013-6-15,83,70,59,66,59,53,90,69,48,30.05,29.95,2,0,4,0.00
2013-6-16,83,71,59,69,63,56,96,76,53,30.08,29.93,1,0,3,0.17
2013-6-17,80,70,65,74,67,64,99,91,69,29.98,29.86,1,0,2,0.19
2013-6-18,81,70,66,74,68,65,98,93,73,29.86,29.75,0,0,1,0.07
2013-6-19,82,71,64,73,67,64,99,88,59,29.94,29.82,1,0,2,0.01
2013-6-21,78,67,62,67,64,61,98,90,65,30.14,30.09,0,0,0,0.23
2013-6-22,81,68,57,68,62,56,100,82,53,30.17,30.04,1,0,2,0.01
2013-6-23,81,70,59,70,64,58,98,84,62,30.13,30.02,2,0,6,0.00
2013-6-24,83,73,64,74,68,64,99,86,63,30.14,30.00,0,0,4,0.47
2013-6-25,82,71,63,73,67,62,98,89,70,30.09,29.95,0,0,1,0.01
2013-6-26,88,72,65,76,69,64,99,91,59,29.99,29.85,1,0,4,0.38
2013-6-27,86,74,67,78,71,66,97,90,73,29.91,29.71,0,0,4,0.08
2013-6-28,90,74,65,77,69,64,99,88,57,29.76,29.57,1,0,3,0.38
2013-6-29,85,72,62,73,65,60,99,83,50,29.65,29.57,0,0,2,0.00
2013-6-30,84,70,59,70,63,58,98,81,47,29.73,29.62,1,0,3,0.00
2013-7-1,79,67,61,69,65,61,99,91,65,29.85,29.70,1,0,3,0.33
2013-7-2,79,71,64,70,66,62,97,86,61,30.02,29.84,2,0,4,0.02
2013-7-3,69,66,63,68,65,62,99,97,91,30.11,29.98,1,0,2,2.15
2013-7-4,72,66,63,70,66,63,99,98,91,30.11,30.04,1,0,9,0.28
2013-7-5,75,68,65,70,66,64,99,95,78,30.15,30.05,1,0,3,0.18
2013-7-6,76,70,65,72,68,65,99,94,81,30.11,30.01,4,1,11,0.84
2013-7-7,77,70,67,71,68,66,99,94,77,30.10,30.02,1,0,4,0.04
2013-7-8,88,73,66,76,70,65,99,89,62,30.12,30.02,2,0,3,0.00
2013-7-9,89,74,66,79,70,66,99,91,61,30.08,29.97,1,0,2,0.10
2013-7-10,89,74,67,79,70,66,99,90,64,30.04,29.86,1,0,2,0.00
2013-7-11,83,73,68,75,70,67,99,92,74,29.89,29.78,0,0,3,0.00
2013-7-12,91,74,65,77,69,63,99,87,51,29.88,29.78,3,0,4,0.00
2013-7-13,75,70,64,68,65,62,97,86,75,30.00,29.86,5,2,11,0.00
2013-7-14,74,70,68,71,68,65,97,92,83,30.16,29.98,6,2,9,0.20
2013-7-15,82,72,66,74,68,64,97,85,67,30.23,30.14,4,1,7,0.02
2013-7-16,86,76,66,75,69,65,97,81,57,30.24,30.14,2,0,4,0.00
2013-7-17,92,75,64,79,70,64,99,86,52,30.21,30.05,3,0,2,0.49
2013-7-18,84,73,64,77,69,64,99,89,68,30.15,29.99,3,0,9,0.06
2013-7-19,88,76,65,76,70,64,98,85,58,30.05,29.91,1,0,2,0.00
2013-7-20,86,72,66,76,70,65,99,91,67,29.96,29.85,2,0,4,0.00
2013-7-21,90,73,66,76,70,65,99,90,58,29.95,29.83,3,0,3,0.28
2013-7-22,84,72,65,75,69,65,99,92,66,29.92,29.78,1,0,4,0.02
2013-7-23,84,73,65,75,70,65,99,89,72,29.86,29.74,0,0,1,0.00
2013-7-24,90,75,67,78,70,64,98,87,55,29.79,29.71,1,0,1,0.00
2013-7-25,88,71,64,75,66,63,99,86,53,29.94,29.77,2,0,3,0.00
2013-7-26,80,69,62,71,66,61,98,89,70,29.99,29.90,4,1,11,0.04
2013-7-27,82,71,64,72,67,63,98,89,64,29.94,29.80,1,0,2,0.00
2013-7-28,86,71,62,73,66,61,99,86,56,29.98,29.84,0,0,1,0.00
2013-7-29,86,68,58,68,61,57,100,82,43,30.12,29.96,0,0,1,0.00
2013-7-30,87,70,55,69,62,54,100,78,39,30.15,30.05,1,0,2,0.00
2013-7-31,74,70,67,71,68,65,98,91,84,30.07,29.88,1,0,3,0.06
2013-8-1,89,74,66,77,69,64,98,87,60,29.92,29.82,0,0,2,0.00
2013-8-2,86,72,62,74,67,61,99,84,56,29.96,29.86,1,0,2,0.00
2013-8-3,86,72,62,73,67,61,99,85,56,29.98,29.91,0,0,1,0.00
2013-8-4,87,74,64,75,68,59,99,84,62,29.97,29.88,0,0,2,0.00
2013-8-5,84,70,60,73,65,59,98,83,54,29.99,29.90,1,0,3,0.00
2013-8-6,83,73,66,74,68,63,97,84,64,29.94,29.88,1,0,6,0.00
2013-8-7,77,71,68,73,70,67,99,95,84,29.96,29.90,2,0,4,0.24
2013-8-8,81,72,69,73,70,68,97,92,76,29.98,29.91,2,0,4,0.00
2013-8-9,84,75,69,76,71,67,97,90,73,30.02,29.93,2,0,3,0.00
2013-8-10,85,74,68,79,71,67,100,92,71,30.06,29.97,3,0,3,0.12
2013-8-11,88,75,66,79,71,65,99,88,65,30.08,29.98,0,0,2,0.06
2013-8-12,86,73,66,77,70,66,99,92,66,30.03,29.90,1,0,1,0.03
2013-8-13,85,74,68,77,71,67,99,92,70,29.93,29.78,0,0,2,0.04
2013-8-14,83,71,63,73,67,62,99,89,59,29.95,29.81,4,0,5,0.18
2013-8-15,73,65,61,64,59,54,97,81,68,30.01,29.93,5,2,11,0.00
2013-8-16,69,63,59,63,58,55,96,84,73,30.06,29.96,4,1,10,0.05
2013-8-17,66,63,60,63,60,57,100,90,80,30.08,30.01,4,1,6,0.35
2013-8-18,73,65,61,68,64,60,99,96,81,30.14,30.04,2,0,4,0.18
2013-8-19,76,68,63,71,66,62,99,94,81,30.11,29.99,3,0,7,0.12
2013-8-20,77,69,63,71,66,63,99,91,77,30.12,30.02,2,0,6,0.01
2013-8-21,73,68,66,70,67,65,99,96,89,30.17,30.06,1,0,2,0.05
2013-8-22,84,71,64,76,69,64,100,92,69,30.12,29.97,3,0,3,0.06
2013-8-23,87,75,64,77,70,64,99,86,65,30.02,29.90,1,0,3,0.01
2013-8-24,79,70,62,71,66,60,98,86,70,30.19,29.97,4,1,7,0.01
2013-8-25,78,68,60,67,60,54,87,76,61,30.28,30.17,3,1,7,0.00
2013-8-26,82,68,56,70,62,56,98,84,56,30.25,30.07,1,0,3,0.00
2013-8-27,85,70,58,74,65,57,99,86,58,30.10,29.96,1,0,2,0.00
2013-8-28,90,73,62,76,68,61,99,86,60,30.00,29.89,0,0,3,0.00
2013-8-29,93,76,66,79,71,65,99,85,59,29.94,29.84,0,0,2,0.00
2013-8-30,85,74,66,74,70,66,99,88,68,29.93,29.84,3,0,6,0.00
2013-8-31,92,74,67,77,70,66,99,88,57,29.89,29.78,1,0,2,0.02
2013-9-1,86,72,67,77,70,66,99,91,67,29.85,29.75,0,0,1,0.14
2013-9-2,81,71,64,74,69,64,99,92,75,29.89,29.78,0,0,1,0.01
2013-9-3,88,73,65,77,69,64,99,88,59,29.91,29.79,0,0,2,0.37
2013-9-4,86,71,60,73,66,60,99,86,58,30.03,29.91,1,0,3,0.01
2013-9-5,87,71,60,72,66,59,99,85,53,30.06,29.99,1,0,2,0.00
2013-9-6,82,70,60,68,64,59,99,83,56,30.08,29.99,4,0,10,0.01
2013-9-7,86,71,60,70,65,59,98,82,54,30.05,29.92,2,0,1,0.16
2013-9-8,85,71,60,72,66,59,98,85,60,29.96,29.87,1,0,3,0.00
2013-9-9,82,72,63,71,66,62,98,83,61,30.06,29.93,4,1,8,0.00
2013-9-10,84,73,63,70,66,62,97,82,57,30.15,30.05,4,1,7,0.00
2013-9-11,87,72,61,72,66,60,98,84,54,30.16,30.03,2,0,4,0.00
2013-9-12,82,70,62,73,67,62,99,92,73,30.04,29.84,1,0,3,0.03
2013-9-13,80,68,57,67,62,52,99,83,50,29.85,29.75,2,0,2,0.00
2013-9-14,74,61,48,59,54,48,98,79,50,30.04,29.83,3,0,6,0.00
2013-9-15,77,66,58,64,60,55,94,79,57,30.11,30.03,5,1,10,0.00
2013-9-16,83,69,60,68,61,56,98,79,40,30.09,30.01,1,0,3,0.00
2013-9-17,72,65,61,60,58,55,91,78,63,30.15,30.05,7,2,13,0.00
2013-9-18,70,64,60,62,57,53,95,80,72,30.17,30.08,4,1,10,0.00
2013-9-19,82,67,56,67,61,55,98,83,57,30.14,30.00,2,0,5,0.00
2013-9-20,81,69,59,68,63,58,98,81,59,30.03,29.85,2,0,5,0.00
2013-9-21,69,64,59,64,63,58,98,94,84,29.87,29.62,3,1,7,1.24
2013-9-22,75,62,54,64,57,53,99,87,54,29.85,29.70,2,0,5,0.01
2013-9-23,73,62,54,60,56,53,98,82,58,29.98,29.84,5,1,11,0.00
2013-9-24,68,62,56,62,59,54,94,88,80,29.98,29.85,4,1,9,0.00
2013-9-25,65,61,59,63,60,58,98,95,88,29.84,29.77,5,1,10,2.41
2013-9-26,77,65,58,68,61,58,100,89,66,29.95,29.81,2,0,5,0.00
2013-9-27,77,64,53,64,57,51,96,81,49,30.08,29.95,2,0,4,0.00
2013-9-28,72,62,54,60,56,52,92,80,60,30.15,30.04,5,1,7,0.00
2013-9-29,68,60,52,58,54,49,94,82,64,30.09,29.98,3,0,8,0.00
2013-9-30,71,60,51,60,55,50,98,85,59,30.04,29.94,4,0,10,0.00
2013-10-1,78,62,52,63,56,51,98,85,54,30.12,30.01,2,0,5,0.00
2013-10-2,80,65,53,66,60,52,98,84,52,30.12,30.00,2,0,5,0.01
2013-10-3,78,66,59,66,60,58,97,83,56,30.08,29.99,2,0,6,0.00
2013-10-4,81,67,56,67,61,55,98,83,53,30.11,30.02,2,0,4,0.00
2013-10-5,81,68,58,67,62,58,98,82,52,30.07,29.95,4,0,8,0.00
2013-10-6,77,68,63,66,62,60,98,84,66,29.97,29.78,7,2,14,0.41
2013-10-7,69,58,51,63,56,50,98,93,71,29.95,29.74,1,0,4,0.61
2013-10-8,72,58,47,60,52,46,100,83,59,30.09,29.95,7,1,15,0.01
2013-10-9,78,61,49,64,54,46,95,79,58,30.13,30.02,2,0,4,0.00
2013-10-10,74,59,48,60,53,47,99,84,52,30.07,29.97,2,0,9,0.00
2013-10-11,79,60,48,62,54,48,98,83,44,30.02,29.92,1,0,4,0.01
2013-10-12,78,60,50,63,55,49,98,85,56,30.06,29.95,1,0,3,0.01
2013-10-13,75,61,51,63,57,50,98,87,63,30.15,30.05,2,0,4,0.00
2013-10-14,72,62,56,63,59,55,99,89,69,30.14,30.04,3,0,9,0.01
2013-10-15,66,60,55,59,56,54,97,88,75,30.09,29.98,4,1,9,0.00
2013-10-16,70,60,55,61,57,54,97,89,69,30.01,29.90,1,0,4,0.01
2013-10-17,68,61,56,66,60,55,98,96,88,29.92,29.81,2,0,5,0.23
2013-10-18,69,56,49,59,52,48,98,89,67,29.97,29.87,2,0,5,0.00
2013-10-19,64,54,48,55,51,46,100,90,65,29.93,29.85,1,0,2,0.01
2013-10-20,67,50,40,50,43,39,97,79,38,30.04,29.93,2,0,5,0.00
2013-10-21,66,54,44,52,48,41,96,81,55,30.09,29.97,5,1,11,0.00
2013-10-22,69,56,50,56,51,48,98,84,52,30.00,29.78,2,0,4,0.01
2013-10-23,53,46,34,48,40,31,95,79,54,30.05,29.75,4,1,9,0.01
2013-10-24,59,42,30,42,35,29,97,79,48,30.19,30.03,2,0,4,0.00
2013-10-25,56,40,27,38,28,21,92,66,29,30.36,30.19,3,0,7,0.00
2013-10-26,63,44,30,37,30,26,88,63,32,30.33,30.14,3,0,0,0.00
2013-10-27,60,52,43,52,44,31,92,75,59,30.14,30.07,1,0,0,0.00
2013-10-28,59,55,51,54,52,49,97,89,76,30.24,30.10,0,0,1,0.07
2013-10-29,68,55,47,56,51,46,99,88,61,30.30,30.20,1,0,4,0.01
2013-10-30,75,64,55,59,56,53,94,77,52,30.25,30.08,1,0,6,0.00
2013-10-31,66,61,59,60,56,51,96,83,73,30.11,29.73,11,2,14,0.03
2013-11-1,75,64,58,61,56,45,98,79,36,29.77,29.62,8,1,12,0.14
2013-11-2,64,50,42,48,42,36,94,74,45,30.00,29.72,3,0,5,0.02
2013-11-3,63,47,37,42,37,35,96,72,38,30.29,29.98,2,0,5,0.00
2013-11-4,56,48,44,39,35,32,74,61,49,30.39,30.28,12,4,17,0.00
2013-11-5,64,51,40,40,35,32,76,56,38,30.41,30.30,6,2,12,0.00
2013-11-6,64,58,50,55,53,37,95,84,61,30.32,30.05,9,4,16,0.00
2013-11-7,59,51,35,56,47,31,97,86,64,30.15,29.96,4,1,10,0.22
2013-11-8,60,44,34,32,25,18,88,52,21,30.31,30.14,3,1,10,0.00
2013-11-9,57,46,38,34,29,26,68,52,34,30.30,30.19,6,1,11,0.00
2013-11-10,70,51,38,44,34,30,80,56,29,30.27,30.16,2,0,4,0.00
2013-11-11,66,49,34,36,31,27,85,53,26,30.26,30.13,3,0,7,0.00
2013-11-12,54,39,24,41,28,14,80,66,52,30.41,30.10,4,1,13,0.00
2013-11-13,49,33,17,21,16,13,86,54,28,30.58,30.41,2,0,5,0.00
2013-11-14,28,26,24,17,15,14,73,64,56,30.48,30.45,0,0,2,0.00
2013-11-15,51,47,40,50,39,16,97,78,36,30.31,30.11,8,1,0,0.17
2013-11-16,59,54,50,54,52,49,98,92,85,30.19,30.09,9,2,15,0.00
2013-11-17,62,58,56,62,57,53,98,94,87,30.12,29.85,9,4,16,0.30
2013-11-18,62,58,55,62,57,54,98,97,95,29.88,29.82,5,0,6,0.09
2013-11-19,58,44,33,34,30,25,81,59,35,30.16,29.97,6,1,14,0.00
2013-11-20,53,44,38,33,28,23,65,53,39,30.32,30.14,14,7,21,0.00
2013-11-21,59,52,44,53,47,33,96,85,64,30.35,30.26,10,3,19,0.02
2013-11-22,62,57,53,59,56,52,98,95,90,30.29,30.10,3,1,10,0.12
2013-11-23,55,44,31,54,42,26,98,92,78,30.22,30.06,3,0,4,0.07
2013-11-24,45,31,21,25,16,10,80,56,28,30.47,30.20,3,1,8,0.00
2013-11-25,42,34,26,34,16,5,95,49,21,30.46,30.19,7,4,14,0.09
2013-11-26,45,43,35,45,42,34,98,97,94,30.19,29.65,9,2,15,3.68
2013-11-27,38,28,20,38,26,16,98,91,81,30.23,29.64,4,2,7,0.11
2013-11-28,49,29,15,29,19,13,98,69,29,30.49,30.23,2,0,5,0.00
2013-11-29,57,38,25,35,25,19,82,61,37,30.55,30.43,6,1,11,0.00
2013-11-30,50,40,32,27,25,23,70,54,37,30.50,30.30,9,3,18,0.00
2013-12-1,56,44,36,40,32,26,80,65,40,30.30,29.99,1,0,4,0.00
2013-12-2,47,43,37,46,40,32,97,91,72,29.99,29.79,1,0,2,0.10
2013-12-3,53,50,46,51,48,46,100,94,90,29.88,29.79,5,1,11,0.04
2013-12-4,63,58,52,58,55,50,96,91,82,29.99,29.86,6,2,13,0.00
2013-12-5,68,62,59,63,61,58,99,95,83,30.01,29.91,3,1,5,0.71
2013-12-6,68,63,51,64,61,50,98,92,81,29.98,29.86,5,2,14,0.53
2013-12-7,51,42,37,51,41,37,99,97,94,30.27,29.95,11,0,18,0.01
2013-12-8,50,44,41,50,42,39,98,94,90,30.24,30.10,11,6,26,0.54
2013-12-9,53,50,47,52,50,47,99,98,94,30.11,29.95,7,2,13,0.79
2013-12-10,52,39,25,51,36,22,99,90,68,30.30,29.87,4,1,10,0.36
2013-12-11,52,32,21,32,23,19,95,73,34,30.46,30.30,3,0,5,0.00
2013-12-12,44,31,23,27,20,11,92,65,35,30.43,30.34,2,0,7,0.00
2013-12-13,52,36,21,27,20,13,78,54,31,30.41,30.18,10,1,15,0.00
2013-12-14,51,47,42,50,42,25,100,85,48,30.19,29.75,10,3,16,0.61
2013-12-15,48,33,26,47,31,24,97,93,90,30.18,29.76,3,1,5,0.03
2013-12-16,54,35,22,36,28,20,97,77,44,30.27,30.17,1,0,6,0.00
2013-12-17,58,42,30,38,32,25,91,69,41,30.21,30.03,5,1,6,0.00
2013-12-18,51,37,26,25,18,12,78,50,23,30.30,30.13,3,1,11,0.00
2013-12-19,63,46,32,35,23,14,63,43,23,30.32,30.17,5,1,12,0.00
2013-12-20,61,53,46,52,39,26,87,61,34,30.18,30.07,7,3,12,0.00
2013-12-21,64,60,55,62,58,51,98,93,87,30.08,29.87,10,5,20,0.35
2013-12-22,65,57,50,62,56,50,98,96,87,30.02,29.82,9,2,19,3.82
2013-12-23,50,44,31,50,42,30,100,96,83,30.22,29.96,2,0,5,0.07
2013-12-24,34,29,20,30,24,17,95,83,61,30.41,30.21,4,1,7,0.00
2013-12-25,41,29,18,26,19,16,93,70,42,30.48,30.35,5,1,10,0.00
2013-12-26,51,35,24,33,26,22,95,72,41,30.39,30.27,2,0,4,0.00
2013-12-27,54,37,25,31,25,22,92,65,31,30.45,30.33,2,0,5,0.00
2013-12-28,47,37,29,43,31,24,96,81,40,30.40,29.93,13,1,14,0.69
2013-12-29,47,43,37,45,42,36,98,94,87,30.01,29.81,13,2,20,0.22
2013-12-30,43,39,34,39,37,33,100,92,84,30.17,29.99,1,0,4,0.01
2013-12-31,43,33,28,33,27,23,96,80,49,30.38,30.14,2,0,6,0.00
2014-1-1,45,38,28,33,26,22,85,63,50,30.35,30.11,6,1,12,0.00
2014-1-2,46,38,17,46,35,14,97,91,76,30.11,29.71,7,2,9,0.20